User: anonymous
Location: Santa Barbara
(34.4500°N, 119.7700°W)
Time: 03:36:03
(UTC-07:00)
Language:

Cosmos 1892 Rocket - Orbit

View from above orbital plane
View from above orbital plane
View from above satellite
View from above satellite

Ground track
Ground track

The orbit data is extracted from the following two-line orbital elements,

1 18422U 87088B   14107.81379861  .00000500  00000-0  59430-4 0  2122
2 18422 082.5130 180.0938 0018256 286.8887 205.4512 14.82337579430461
Epoch (UTC): 17 April 2014 19:31:52
Eccentricity: 0.0018256
inclination: 82.5130°
perigee height: 609 km
apogee height: 635 km
right ascension of ascending node: 180.0938°
argument of perigee: 286.8887°
revolutions per day: 14.82337579
mean anomaly at epoch: 205.4512°
orbit number at epoch: 43046

The dashed part of the orbit path shows where the satellite is in the earth's shadow,  

DLR